Regional Weather Roundup
Issued by NWS Boston, MA

Current Version | Previous Version | Text Only | Print | Product List | Glossary On
Versions: 1 2 3 4 5 6 7 8 9 10 11 12 13 14 15 16 17 18 19 20 21 22 23 24 25 26 27
000 ASUS41 KBOX 250510 RWRBOX REGIONAL WEATHER ROUNDUP NATIONAL WEATHER SERVICE TAUNTON MA 100 AM EDT THU MAY 25 2017 NOTE: "FAIR" INDICATES FEW OR NO CLOUDS BELOW 12,000 FEET WITH NO SIGNIFICANT WEATHER AND/OR OBSTRUCTIONS TO VISIBILITY. MAZALL-250600- EASTERN MASSACHUSETTS CITY SKY/WX TMP DP RH WIND PRES REMARKS BOSTON PTCLDY 55 52 89 E3 29.89R BEVERLY CLOUDY 50 48 93 CALM 29.88S LAWRENCE PTCLDY 55 50 83 CALM 29.90S BEDFORD CLOUDY 49 46 90 CALM 29.88R BLUE HILL N/A 52 47 83 E10 29.87S NORWOOD CLOUDY 50 49 96 CALM 29.88R MARSHFIELD PTCLDY 50 50 100 CALM 29.88S PLYMOUTH CLOUDY 51 49 92 NE5 29.88R TAUNTON PTCLDY 49 47 93 CALM 29.87S NEW BEDFORD N/A N/A N/A N/A MISG 29.86S $$ MAZALL-250600- CAPE COD AND THE ISLANDS CITY SKY/WX TMP DP RH WIND PRES REMARKS FALMOUTH N/A N/A N/A N/A MISG N/A HYANNIS PTCLDY 51 48 89 NE3 29.85F CHATHAM CLOUDY 54 50 86 NE7 29.88R PROVINCETOWN CLOUDY 50 49 96 NE6 29.89R NANTUCKET CLOUDY 52 48 86 NE13 29.84F MARTHAS VNYRD CLOUDY 56 49 77 E9 29.86R $$ MAZALL-250600- CENTRAL AND WESTERN MASSACHUSETTS CITY SKY/WX TMP DP RH WIND PRES REMARKS WORCESTER CLOUDY 53 47 79 E3 29.88S FITCHBURG CLOUDY 53 50 89 CALM 29.89S ORANGE MOCLDY 52 50 93 CALM 29.88S SPRINGFIELD CLOUDY 55 47 74 CALM 29.85F WESTFIELD MOCLDY 57 50 77 CALM 29.86S NORTH ADAMS CLOUDY 59 47 64 VRB6 29.84S PITTSFIELD CLOUDY 56 47 71 SE10 29.83F $$ RIZALL-250600- RHODE ISLAND CITY SKY/WX TMP DP RH WIND PRES REMARKS PROVIDENCE MOCLDY 53 51 93 NE5 29.88R NEWPORT MOCLDY 54 50 86 NE5 29.86S BLOCK ISLAND CLOUDY 55 52 89 NE9 29.85F SMITHFIELD CLOUDY 51 49 92 NE3 29.88S WESTERLY CLOUDY 55 52 89 NE5 29.86S $$ CTZALL-250600- CONNECTICUT CITY SKY/WX TMP DP RH WIND PRES REMARKS BRADLEY INTL CLOUDY 57 49 74 E5 29.86S HARTFORD MOCLDY 56 53 90 E3 29.85S BRIDGEPORT CLOUDY 58 52 80 E12 29.83F DANBURY CLOUDY 54 50 86 E9 29.84F GROTON CLOUDY 56 50 80 NE9 29.84F NEW HAVEN CLOUDY 55 50 83 NE5 29.83F CHESTER FAIR 54 52 94 VRB5 29.84F MERIDEN CLOUDY 52 50 93 CALM 29.84F WILLIMANTIC MOCLDY 56 51 84 CALM 29.87S OXFORD N/A 54 46 76 E3 29.85F $$ MEZ002-015-021-024-NHZ003-005-008-011-012-014-VTZ005-008-250600- NORTHERN NEW ENGLAND CITY SKY/WX TMP DP RH WIND PRES REMARKS PORTLAND ME CLOUDY 51 48 89 CALM 29.90S BANGOR ME CLOUDY 50 48 93 S3 29.91R CONCORD NH MOCLDY 53 50 89 E5 29.89S MANCHESTER NH CLOUDY 55 48 77 CALM 29.87F NASHUA NH PTCLDY 52 50 93 CALM 29.89S PORTSMOUTH NH MOCLDY 51 49 93 CALM 29.88S JAFFREY NH CLOUDY 50 50 100 CALM 29.89S KEENE NH CLOUDY 52 50 93 CALM 29.88S BURLINGTON VT PTCLDY 61 53 75 CALM 29.82R MT. WASHINGTON MOCLDY 41 39 93 SE12 N/A $$ NYZ052-076-250600- EASTERN NEW YORK CITY SKY/WX TMP DP RH WIND PRES REMARKS ALBANY CLOUDY 63 48 58 SE8 29.83R NEW YORK CITY CLOUDY 59 51 75 E12 29.80F $$ ANZALL-250600- MARINE OBSERVATIONS STATION/POSITION TIME TEMP WIND PRES VSBY WAVE AIR SEA DIR/SP/G HT/PER (UTC) (F) (DEG/KT/KT) (MB) (MI) (FT/S) BOSTON BUOY 0350 54 54 30/ 4/ 4 1010.5 2/ 8 BUZZARDS BAY 0400 55 60/ 12/ 12 1011.4R NANTUCKET SOUND 0450 54 1010.5F 1/ 3 MASS BAY-STELLWA 0404 54 55 60/ 2/ 4 1010.9R 2/ 8 ISLE OF SHOALS 0400 55 200/ 3/ 3 1011.9R S OF BLOCK IS 0455 53 N/A 5/ 8 $$ ......................KEY......................... SKY/WX - SKY CONDITION/PRESENT WEATHER TMP - TEMPERATURE IN FAHRENHEIT DWPT - DEWPOINT IN FAHRENHEIT RH - RELATIVE HUMIDITY IN PERCENT WIND - DIRECTION AND SPEED IN MPH PRES - MEAN SEA LEVEL PRESSURE IN INCHES OF HG WCI - WIND CHILL INDEX VSB - VISIBILITY IN MILES HX - HEAT INDEX TC - TEMPERATURE IN CELSIUS VRB - VARIABLE WIND DIRECTION N/A - NOT AVAILABLE

USA.gov is the U.S. government's official web portal to all federal, state and local government web resources and services.